Total_Precipitation_Accumulation
0.17 0.24 0.31 0.32 0.27 0.22 0.18 0.21 0.34 0.34 0.40 0.50 0.61 0.67 0.84 0.92 0.87 0.81 0.74 0.71 0.78 0.92 0.94 0.94 1.00 1.01 1.10 1.12 1.31 1.33 1.39 1.49 1.58 1.56 1.57 1.54 1.47 1.43 1.48 1.56 1.53 1.71 1.93 2.02
0.16 0.18 0.23 0.26 0.26 0.19 0.14 0.13 0.16 0.29 0.52 0.55 0.59 0.65 0.79 0.80 0.78 0.79 0.86 0.90 0.93 0.98 1.06 0.96 0.91 0.85 0.80 0.87 1.05 1.19 1.32 1.29 1.35 1.43 1.36 1.32 1.34 1.32 1.36 1.45 1.56 1.74 1.78 1.81
0.26 0.22 0.27 0.32 0.27 0.20 0.14 0.13 0.15 0.32 0.60 0.61 0.63 0.70 0.83 0.89 0.89 0.79 0.80 0.86 0.97 1.03 1.03 0.87 0.82 0.80 0.82 0.84 0.94 1.03 1.14 1.30 1.40 1.45 1.39 1.33 1.36 1.47 1.48 1.61 1.67 1.66 1.60 1.60
0.37 0.45 0.58 0.39 0.26 0.22 0.23 0.21 0.22 0.28 0.39 0.48 0.63 0.66 0.69 0.76 0.87 0.89 0.91 0.99 1.04 1.01 0.96 0.91 0.87 0.88 0.90 0.90 0.97 1.09 1.13 1.25 1.37 1.39 1.35 1.35 1.35 1.42 1.54 1.71 1.77 1.69 1.52 1.51
0.51 0.60 0.52 0.44 0.37 0.35 0.39 0.40 0.36 0.45 0.44 0.50 0.57 0.64 0.80 0.70 0.73 0.75 0.92 0.98 1.03 1.05 1.07 1.06 1.01 1.07 1.10 1.05 1.10 1.22 1.33 1.41 1.38 1.43 1.47 1.50 1.52 1.59 1.66 1.70 1.71 1.77 1.66 1.58
0.67 0.81 0.81 0.67 0.57 0.50 0.52 0.86 0.65 0.61 0.62 0.71 0.77 0.89 1.07 0.88 0.78 0.85 0.94 0.91 0.96 0.96 1.03 1.14 1.15 1.27 1.31 1.32 1.32 1.40 1.51 1.61 1.64 1.72 1.79 1.76 1.88 2.01 2.02 2.00 1.95 2.00 1.89 1.80
0.87 0.99 0.99 0.78 0.66 0.62 1.04 1.25 0.82 0.73 0.78 0.77 0.82 0.95 0.97 0.97 0.98 0.96 0.80 0.77 0.83 0.94 0.94 1.05 1.24 1.44 1.59 1.56 1.49 1.58 1.71 1.86 2.00 2.10 2.27 2.43 2.51 2.41 2.32 2.32 2.32 2.15 2.01 1.97
1.22 1.40 1.32 0.84 0.79 1.13 1.36 1.02 1.04 0.93 0.86 0.86 0.81 0.91 0.98 0.98 0.94 0.84 0.83 0.81 0.87 0.99 1.00 1.05 1.23 1.42 1.60 1.62 1.64 1.81 1.98 2.16 2.29 2.48 2.57 2.68 3.02 3.05 3.03 2.95 2.68 2.42 2.34 2.20
1.36 1.46 1.20 1.02 1.18 1.27 1.24 1.21 1.25 1.28 1.10 1.01 0.94 0.96 1.00 0.94 0.85 0.79 0.80 0.81 0.86 1.02 1.14 1.18 1.28 1.51 1.79 1.83 1.88 2.02 2.16 2.36 2.51 2.58 2.71 2.84 2.97 2.97 2.98 2.91 2.65 2.48 2.45 2.36
1.50 1.59 1.38 1.29 1.29 1.32 1.29 1.24 1.27 1.36 1.48 1.45 1.20 1.04 1.05 1.02 0.92 0.91 0.97 0.93 0.95 1.07 1.23 1.40 1.52 1.70 1.96 2.01 2.13 2.21 2.28 2.39 2.47 2.55 2.66 2.83 2.96 2.88 2.81 2.75 2.67 2.61 2.58 2.53
1.91 1.89 1.71 1.55 1.57 1.68 1.57 1.44 1.48 1.50 1.54 1.60 1.30 1.06 1.00 1.07 1.05 1.04 1.14 1.17 1.15 1.20 1.32 1.54 1.70 1.87 1.94 1.99 2.19 2.38 2.38 2.42 2.51 2.52 2.53 2.64 2.71 2.79 2.73 2.68 2.70 2.70 2.70 2.72
2.15 1.97 2.04 1.87 1.56 1.65 1.77 1.63 1.64 1.60 1.51 1.37 1.26 1.19 1.18 1.18 1.17 1.17 1.29 1.33 1.32 1.30 1.38 1.57 1.75 1.94 2.05 2.17 2.30 2.44 2.48 2.41 2.46 2.51 2.51 2.51 2.50 2.39 2.40 2.36 2.32 2.24 2.32 2.38
1.76 1.66 1.80 1.79 1.69 1.70 1.88 1.77 1.54 1.48 1.47 1.45 1.38 1.25 1.24 1.22 1.17 1.22 1.29 1.30 1.34 1.39 1.43 1.52 1.65 1.88 2.08 2.32 2.52 2.63 2.65 2.63 2.61 2.70 2.77 2.74 2.71 2.62 2.52 2.42 2.24 2.03 1.92 1.91
1.70 1.73 1.82 1.89 1.95 1.85 1.87 1.77 1.53 1.38 1.35 1.41 1.43 1.32 1.27 1.27 1.25 1.33 1.43 1.35 1.28 1.34 1.48 1.52 1.58 1.78 1.99 2.19 2.42 2.58 2.61 2.70 2.70 2.69 2.76 2.78 2.76 2.73 2.64 2.48 2.35 2.14 1.89 1.76
1.82 1.89 2.00 2.00 2.03 1.97 1.91 1.78 1.76 1.55 1.37 1.36 1.43 1.43 1.39 1.38 1.39 1.36 1.36 1.27 1.20 1.25 1.36 1.53 1.66 1.73 1.89 1.97 2.07 2.22 2.35 2.46 2.51 2.49 2.47 2.53 2.60 2.57 2.49 2.41 2.28 2.11 1.86 1.76
1.82 1.91 1.93 1.94 2.00 1.99 1.93 1.86 1.78 1.60 1.43 1.43 1.48 1.40 1.42 1.45 1.41 1.33 1.26 1.29 1.35 1.38 1.42 1.57 1.63 1.73 1.94 2.08 2.20 2.28 2.34 2.42 2.40 2.33 2.20 2.14 2.15 2.18 2.14 2.16 2.14 2.05 1.91 1.76
1.89 1.95 1.95 1.98 1.91 1.90 1.96 1.96 1.82 1.62 1.47 1.44 1.49 1.44 1.33 1.27 1.25 1.24 1.22 1.22 1.25 1.34 1.45 1.60 1.64 1.61 1.82 2.12 2.30 2.30 2.24 2.19 2.19 2.13 2.01 1.92 1.95 2.04 2.10 2.13 2.07 1.96 1.84 1.74
1.82 1.80 1.78 1.87 1.89 1.85 1.84 1.82 1.86 1.74 1.57 1.49 1.42 1.42 1.40 1.35 1.22 1.15 1.14 1.17 1.21 1.21 1.24 1.37 1.47 1.53 1.62 1.83 2.05 2.14 2.13 2.02 1.91 1.85 1.84 1.80 1.77 1.82 1.88 1.86 1.75 1.66 1.58 1.46
1.60 1.57 1.56 1.61 1.72 1.80 1.83 1.77 1.80 1.77 1.63 1.58 1.56 1.54 1.50 1.48 1.34 1.23 1.17 1.19 1.32 1.39 1.28 1.31 1.48 1.45 1.54 1.70 1.87 1.89 1.96 1.99 1.89 1.73 1.70 1.77 1.67 1.63 1.58 1.52 1.45 1.39 1.29 1.24
1.54 1.45 1.48 1.63 1.75 1.90 1.98 1.84 1.68 1.71 1.74 1.68 1.65 1.62 1.54 1.51 1.45 1.41 1.38 1.34 1.47 1.56 1.52 1.48 1.37 1.36 1.49 1.74 1.88 1.80 1.81 1.85 1.82 1.73 1.67 1.63 1.57 1.52 1.38 1.34 1.32 1.30 1.26 1.25
1.66 1.57 1.62 1.69 1.72 1.84 1.93 1.82 1.63 1.63 1.64 1.63 1.62 1.58 1.53 1.53 1.48 1.54 1.62 1.57 1.48 1.48 1.44 1.47 1.36 1.35 1.39 1.61 1.74 1.71 1.68 1.66 1.68 1.64 1.62 1.62 1.57 1.50 1.38 1.36 1.34 1.29 1.22 1.17
1.84 1.74 1.67 1.62 1.54 1.57 1.67 1.73 1.55 1.45 1.45 1.49 1.51 1.46 1.48 1.50 1.54 1.57 1.54 1.58 1.57 1.58 1.39 1.35 1.37 1.39 1.38 1.41 1.44 1.59 1.65 1.56 1.50 1.44 1.44 1.42 1.43 1.45 1.36 1.29 1.22 1.09 1.03 1.02
1.79 1.70 1.56 1.48 1.43 1.42 1.44 1.44 1.38 1.37 1.41 1.46 1.54 1.61 1.64 1.56 1.56 1.73 1.72 1.47 1.42 1.40 1.30 1.29 1.29 1.22 1.15 1.18 1.32 1.44 1.53 1.51 1.48 1.38 1.32 1.29 1.22 1.21 1.19 1.14 1.06 0.99 0.98 0.98
1.50 1.56 1.49 1.35 1.34 1.36 1.41 1.41 1.37 1.34 1.36 1.45 1.52 1.64 1.75 1.79 1.71 1.66 1.65 1.57 1.36 1.19 1.07 1.06 1.00 0.96 0.96 0.98 1.16 1.29 1.41 1.42 1.38 1.28 1.19 1.15 1.05 1.02 1.05 1.05 1.00 0.97 0.95 0.92
1.29 1.27 1.32 1.33 1.31 1.41 1.45 1.40 1.37 1.30 1.35 1.44 1.44 1.55 1.74 1.85 1.87 1.74 1.50 1.30 1.20 1.09 0.97 0.94 0.95 0.94 0.89 0.93 1.08 1.25 1.35 1.35 1.33 1.25 1.13 1.06 0.97 0.93 0.97 0.99 0.95 0.91 0.86 0.83
1.31 1.28 1.36 1.42 1.38 1.44 1.46 1.44 1.49 1.48 1.52 1.61 1.60 1.61 1.65 1.56 1.52 1.47 1.38 1.25 1.13 1.09 0.99 0.97 0.97 0.95 0.93 1.05 1.14 1.22 1.29 1.28 1.27 1.20 1.07 0.99 0.91 0.91 0.96 0.96 0.91 0.88 0.80 0.73
1.36 1.36 1.43 1.50 1.54 1.51 1.48 1.49 1.54 1.59 1.70 1.85 2.00 1.94 1.82 1.71 1.60 1.42 1.29 1.23 1.14 1.08 1.08 1.06 0.98 0.92 0.95 1.08 1.19 1.23 1.23 1.19 1.10 1.03 1.01 0.97 0.92 0.92 0.95 0.92 0.85 0.79 0.71 0.66